Location: Deje
(59.6042°N, 13.4665°E)
Time: 04:16:56
(UTC+01:00)

ISS - Visible Passes

Search period start: 25 February 2021 00:00
Search period end: 07 March 2021 00:00
Orbit: 417 x 422 km, 51.6° (Epoch: 26 February)

Date Brightness Start Highest point End Pass type
(mag) Time Alt. Az. Time Alt. Az. Time Alt. Az.
25 Feb -1.4 06:25:14 10° SSW 06:27:41 19° SSE 06:30:07 10° ESE visible
26 Feb -1.3 05:38:13 10° SSW 05:40:25 16° SSE 05:42:39 10° ESE visible
27 Feb -1.3 04:52:10 13° S 04:53:12 14° SSE 04:55:02 10° SE visible
27 Feb -1.7 06:26:34 10° SW 06:29:12 21° S 06:31:50 10° SE visible
28 Feb -0.9 04:06:33 11° SE 04:06:33 11° SE 04:07:09 10° SE visible
28 Feb -1.7 05:39:31 11° SW 05:41:55 20° S 05:44:29 10° ESE visible
01 Mar -1.8 04:53:52 17° S 04:54:37 19° SSE 04:57:04 10° ESE visible
02 Mar -1.3 04:08:11 15° SE 04:08:11 15° SE 04:09:33 10° ESE visible
02 Mar -1.9 05:41:08 12° SW 05:43:23 21° S 05:46:02 10° SE visible
03 Mar -2.1 04:55:25 20° SSW 04:56:04 21° S 04:58:41 10° SE visible
04 Mar -1.6 04:09:43 18° SSE 04:09:43 18° SSE 04:11:18 10° ESE visible
04 Mar -1.8 05:42:40 11° SW 05:44:49 19° SSW 05:47:16 10° SE visible
05 Mar -2.1 04:56:57 20° SSW 04:57:28 20° S 05:00:03 10° SE visible
06 Mar -1.6 04:11:15 18° SSE 04:11:15 18° SSE 04:12:46 10° SE visible
06 Mar -1.6 05:44:13 10° WSW 05:46:08 14° SSW 05:48:03 10° SSE visible
